DF1NIF-13 Weather Reports


time (UTC)temp
C
wind
direction
speed
KPH
gust
KPH
rain 1hr
cm
rain 24hr
cm
rain mn
cm
humidity
%
barometer
mb
20240420163910 6 0 0.0 0.0 0.00 0.00 0.00 10 543.9
20240420163505 7 0 0.0 0.0 0.00 0.00 0.00 10 543.9
20240420163025 7 0 0.0 0.0 0.00 0.00 0.00 10 544.0
20240420162605 7 0 0.0 0.0 0.00 0.00 0.00 10 543.9
20240420162115 6 0 0.0 0.0 0.00 0.00 0.00 10 544.1
20240420161645 5 0 0.0 0.0 0.00 0.00 0.00 10 544.1
20240420161220 4 0 0.0 0.0 0.00 0.00 0.00 10 544.0
20240420160735 5 0 0.0 0.0 0.00 0.00 0.00 10 543.7
20240420160245 5 0 0.0 0.0 0.00 0.00 0.00 10 543.9
20240420155750 6 0 0.0 0.0 0.00 0.00 0.00 10 544.1
20240420155340 8 0 0.0 0.0 0.00 0.00 0.00 10 544.2
20240420154849 10 0 0.0 0.0 0.00 0.00 0.00 10 544.2
20240420154440 10 0 0.0 0.0 0.00 0.00 0.00 10 544.2
20240420154010 8 0 0.0 0.0 0.00 0.00 0.00 10 544.2
20240420153535 7 0 0.0 0.0 0.00 0.00 0.00 10 544.4
20240420153105 5 0 0.0 0.0 0.00 0.00 0.00 10 544.2
20240420152630 5 0 0.0 0.0 0.00 0.00 0.00 10 544.1
20240420152215 6 0 0.0 0.0 0.00 0.00 0.00 10 544.2
20240420151730 7 0 0.0 0.0 0.00 0.00 0.00 10 543.9
20240420151300 7 0 0.0 0.0 0.00 0.00 0.00 10 543.9
20240420150819 7 0 0.0 0.0 0.00 0.00 0.00 10 544.1
20240420150350 6 0 0.0 0.0 0.00 0.00 0.00 10 544.0
20240420145950 6 0 0.0 0.0 0.00 0.00 0.00 10 544.1
20240420145510 7 0 0.0 0.0 0.00 0.00 0.00 10 544.3
20240420145030 10 0 0.0 0.0 0.00 0.00 0.00 10 544.4
20240420144545 8 0 0.0 0.0 0.00 0.00 0.00 10 544.4
20240420144100 8 0 0.0 0.0 0.00 0.00 0.00 10 544.4
20240420143610 7 0 0.0 0.0 0.00 0.00 0.00 10 544.3
20240420143135 8 0 0.0 0.0 0.00 0.00 0.00 10 544.8
20240420142640 8 0 0.0 0.0 0.00 0.00 0.00 10 544.6
20240420142205 9 0 0.0 0.0 0.00 0.00 0.00 10 544.7
20240420141745 9 0 0.0 0.0 0.00 0.00 0.00 10 544.9
20240420141255 6 0 0.0 0.0 0.00 0.00 0.00 10 544.9
20240420140815 5 0 0.0 0.0 0.00 0.00 0.00 10 544.5
20240420140350 4 0 0.0 0.0 0.00 0.00 0.00 10 544.3
20240420135910 4 0 0.0 0.0 0.00 0.00 0.00 10 544.3
20240420135440 3 0 0.0 0.0 0.00 0.00 0.00 10 544.1
20240420135015 3 0 0.0 0.0 0.00 0.00 0.00 10 544.0
20240420134525 3 0 0.0 0.0 0.00 0.00 0.00 10 544.0
20240420134025 5 0 0.0 0.0 0.00 0.00 0.00 10 544.1
20240420133605 6 0 0.0 0.0 0.00 0.00 0.00 10 544.3
20240420133135 7 0 0.0 0.0 0.00 0.00 0.00 10 544.4
20240420132700 7 0 0.0 0.0 0.00 0.00 0.00 10 544.3
20240420132239 7 0 0.0 0.0 0.00 0.00 0.00 10 544.3
20240420131815 8 0 0.0 0.0 0.00 0.00 0.00 10 544.3
20240420131350 8 0 0.0 0.0 0.00 0.00 0.00 10 544.5
20240420130925 8 0 0.0 0.0 0.00 0.00 0.00 10 544.3
20240420130500 8 0 0.0 0.0 0.00 0.00 0.00 10 544.8
20240420130006 7 0 0.0 0.0 0.00 0.00 0.00 10 544.7
20240420125535 8 0 0.0 0.0 0.00 0.00 0.00 10 544.9
20240420125125 8 0 0.0 0.0 0.00 0.00 0.00 10 544.9
20240420124630 11 0 0.0 0.0 0.00 0.00 0.00 10 545.5
20240420124150 9 0 0.0 0.0 0.00 0.00 0.00 10 544.9
20240420123700 8 0 0.0 0.0 0.00 0.00 0.00 10 544.5
20240420123235 7 0 0.0 0.0 0.00 0.00 0.00 10 544.6
20240420122810 7 0 0.0 0.0 0.00 0.00 0.00 10 545.4
20240420122315 6 0 0.0 0.0 0.00 0.00 0.00 10 544.5
20240420121850 6 0 0.0 0.0 0.00 0.00 0.00 10 544.4
20240420121415 6 0 0.0 0.0 0.00 0.00 0.00 10 544.4
20240420120940 8 0 0.0 0.0 0.00 0.00 0.00 10 544.6
20240420120510 9 0 0.0 0.0 0.00 0.00 0.00 10 545.4
20240420120045 8 0 0.0 0.0 0.00 0.00 0.00 10 545.4
20240420115620 7 0 0.0 0.0 0.00 0.00 0.00 10 544.6
20240420115125 7 0 0.0 0.0 0.00 0.00 0.00 10 544.6
20240420114710 7 0 0.0 0.0 0.00 0.00 0.00 10 545.0
20240420114245 7 0 0.0 0.0 0.00 0.00 0.00 10 545.0
20240420113830 10 0 0.0 0.0 0.00 0.00 0.00 10 545.6
20240420113425 8 0 0.0 0.0 0.00 0.00 0.00 10 545.4
20240420113010 10 0 0.0 0.0 0.00 0.00 0.00 10 545.6
20240420112528 7 0 0.0 0.0 0.00 0.00 0.00 10 545.7
20240420112105 7 0 0.0 0.0 0.00 0.00 0.00 10 545.5
20240420111625 5 0 0.0 0.0 0.00 0.00 0.00 10 545.9
20240420111205 5 0 0.0 0.0 0.00 0.00 0.00 10 544.3
20240420110735 4 0 0.0 0.0 0.00 0.00 0.00 10 544.1
20240420110255 5 0 0.0 0.0 0.00 0.00 0.00 10 544.3
20240420105825 5 0 0.0 0.0 0.00 0.00 0.00 10 544.4
20240420105415 7 0 0.0 0.0 0.00 0.00 0.00 10 544.8
20240420104940 7 0 0.0 0.0 0.00 0.00 0.00 10 544.9
20240420104455 8 0 0.0 0.0 0.00 0.00 0.00 10 545.3
20240420104005 5 0 0.0 0.0 0.00 0.00 0.00 10 544.3
20240420103530 5 0 0.0 0.0 0.00 0.00 0.00 10 544.1
20240420103105 7 0 0.0 0.0 0.00 0.00 0.00 10 544.6
20240420102630 8 0 0.0 0.0 0.00 0.00 0.00 10 544.6
20240420102205 10 0 0.0 0.0 0.00 0.00 0.00 10 546.0
20240420101715 8 0 0.0 0.0 0.00 0.00 0.00 10 546.4
20240420101250 8 0 0.0 0.0 0.00 0.00 0.00 10 546.3
20240420100820 6 0 0.0 0.0 0.00 0.00 0.00 10 545.1
20240420100405 5 0 0.0 0.0 0.00 0.00 0.00 10 544.9
20240420095940 4 0 0.0 0.0 0.00 0.00 0.00 10 544.1
20240420095515 5 0 0.0 0.0 0.00 0.00 0.00 10 544.2
20240420095045 6 0 0.0 0.0 0.00 0.00 0.00 10 544.4
20240420094630 6 0 0.0 0.0 0.00 0.00 0.00 10 544.5
20240420094140 7 0 0.0 0.0 0.00 0.00 0.00 10 544.6
20240420093705 10 0 0.0 0.0 0.00 0.00 0.00 10 546.9
20240420093250 7 0 0.0 0.0 0.00 0.00 0.00 10 545.4
20240420092825 6 0 0.0 0.0 0.00 0.00 0.00 10 546.0
20240420092410 6 0 0.0 0.0 0.00 0.00 0.00 10 545.4
20240420091945 6 0 0.0 0.0 0.00 0.00 0.00 10 546.3
20240420091510 7 0 0.0 0.0 0.00 0.00 0.00 10 546.8
20240420091040 6 0 0.0 0.0 0.00 0.00 0.00 10 545.3
20240420090610 5 0 0.0 0.0 0.00 0.00 0.00 10 545.4
20240420090140 6 0 0.0 0.0 0.00 0.00 0.00 10 546.5
20240420085650 5 0 0.0 0.0 0.00 0.00 0.00 10 546.1
20240420085215 5 0 0.0 0.0 0.00 0.00 0.00 10 546.8
20240420084740 3 0 0.0 0.0 0.00 0.00 0.00 10 545.1
20240420084300 3 0 0.0 0.0 0.00 0.00 0.00 10 545.0
20240420083830 3 0 0.0 0.0 0.00 0.00 0.00 10 544.6
20240420083415 2 0 0.0 0.0 0.00 0.00 0.00 10 544.1
20240420082940 1 0 0.0 0.0 0.00 0.00 0.00 10 544.3
20240420082510 1 0 0.0 0.0 0.00 0.00 0.00 10 543.9
20240420082045 1 0 0.0 0.0 0.00 0.00 0.00 10 543.8
20240420081620 5 0 0.0 0.0 0.00 0.00 0.00 10 544.0
20240420081155 5 0 0.0 0.0 0.00 0.00 0.00 10 544.0
20240420080725 5 0 0.0 0.0 0.00 0.00 0.00 10 544.3
20240420080250 5 0 0.0 0.0 0.00 0.00 0.00 10 544.6
20240420075830 5 0 0.0 0.0 0.00 0.00 0.00 10 544.5
20240420075400 5 0 0.0 0.0 0.00 0.00 0.00 10 544.5
20240420074950 5 0 0.0 0.0 0.00 0.00 0.00 10 544.4
20240420074535 5 0 0.0 0.0 0.00 0.00 0.00 10 544.4
20240420074105 5 0 0.0 0.0 0.00 0.00 0.00 10 544.5
20240420073630 5 0 0.0 0.0 0.00 0.00 0.00 10 545.9
20240420073145 5 0 0.0 0.0 0.00 0.00 0.00 10 544.4
20240420072725 5 0 0.0 0.0 0.00 0.00 0.00 10 547.2
20240420072250 5 0 0.0 0.0 0.00 0.00 0.00 10 545.1
20240420071830 5 0 0.0 0.0 0.00 0.00 0.00 10 545.0
20240420071340 5 0 0.0 0.0 0.00 0.00 0.00 10 544.5
20240420070930 5 0 0.0 0.0 0.00 0.00 0.00 10 544.8
20240420070440 3 0 0.0 0.0 0.00 0.00 0.00 10 544.2
20240420070005 4 0 0.0 0.0 0.00 0.00 0.00 10 544.3
20240420065535 4 0 0.0 0.0 0.00 0.00 0.00 10 544.3
20240420065050 4 0 0.0 0.0 0.00 0.00 0.00 10 544.2
20240420064610 -17 0 0.0 0.0 0.00 0.00 0.00 100 544.1
20240420064200 -17 0 0.0 0.0 0.00 0.00 0.00 100 544.1
20240420063735 4 0 0.0 0.0 0.00 0.00 0.00 10 544.1
20240420063310 3 0 0.0 0.0 0.00 0.00 0.00 10 543.9
20240420062820 3 0 0.0 0.0 0.00 0.00 0.00 10 543.9
20240420062355 3 0 0.0 0.0 0.00 0.00 0.00 10 544.0
20240420061915 3 0 0.0 0.0 0.00 0.00 0.00 10 544.1
20240420061445 4 0 0.0 0.0 0.00 0.00 0.00 10 544.1
20240420061011 4 0 0.0 0.0 0.00 0.00 0.00 10 544.1
20240420060552 4 0 0.0 0.0 0.00 0.00 0.00 10 544.2
20240420060145 4 0 0.0 0.0 0.00 0.00 0.00 10 544.3
20240420055710 4 0 0.0 0.0 0.00 0.00 0.00 10 544.1
20240420055240 4 0 0.0 0.0 0.00 0.00 0.00 10 544.3
20240420054810 4 0 0.0 0.0 0.00 0.00 0.00 10 544.2
20240420054400 4 0 0.0 0.0 0.00 0.00 0.00 10 544.2
20240420053935 3 0 0.0 0.0 0.00 0.00 0.00 10 544.0
20240420053510 3 0 0.0 0.0 0.00 0.00 0.00 10 544.0
20240420053035 3 0 0.0 0.0 0.00 0.00 0.00 10 543.9
20240420052545 3 0 0.0 0.0 0.00 0.00 0.00 10 543.9
20240420052055 3 0 0.0 0.0 0.00 0.00 0.00 10 544.0
20240420051635 3 0 0.0 0.0 0.00 0.00 0.00 10 544.0
20240420051220 3 0 0.0 0.0 0.00 0.00 0.00 10 544.0
20240420050755 3 0 0.0 0.0 0.00 0.00 0.00 10 543.9
20240420050335 3 0 0.0 0.0 0.00 0.00 0.00 10 543.9
20240420045915 3 0 0.0 0.0 0.00 0.00 0.00 10 544.0
20240420045505 3 0 0.0 0.0 0.00 0.00 0.00 10 544.0
20240420045030 3 0 0.0 0.0 0.00 0.00 0.00 10 544.0
20240420044605 3 0 0.0 0.0 0.00 0.00 0.00 10 544.0
20240420044125 3 0 0.0 0.0 0.00 0.00 0.00 10 543.8
20240420043705 3 0 0.0 0.0 0.00 0.00 0.00 10 543.7
20240420043229 3 0 0.0 0.0 0.00 0.00 0.00 10 543.9
20240420042820 3 0 0.0 0.0 0.00 0.00 0.00 10 544.0
20240420042349 3 0 0.0 0.0 0.00 0.00 0.00 10 543.9
20240420041920 3 0 0.0 0.0 0.00 0.00 0.00 10 543.9
20240420041455 3 0 0.0 0.0 0.00 0.00 0.00 10 543.8
20240420041030 3 0 0.0 0.0 0.00 0.00 0.00 10 543.8
20240420040610 3 0 0.0 0.0 0.00 0.00 0.00 10 543.8
20240420040137 3 0 0.0 0.0 0.00 0.00 0.00 10 543.8
20240420035655 3 0 0.0 0.0 0.00 0.00 0.00 10 543.9
20240420035220 3 0 0.0 0.0 0.00 0.00 0.00 10 543.9
20240420034745 3 0 0.0 0.0 0.00 0.00 0.00 10 544.0
20240420034300 3 0 0.0 0.0 0.00 0.00 0.00 10 543.9
20240420033815 3 0 0.0 0.0 0.00 0.00 0.00 10 543.9
20240420033340 3 0 0.0 0.0 0.00 0.00 0.00 10 543.8
20240420032915 3 0 0.0 0.0 0.00 0.00 0.00 10 544.0
20240420032455 3 0 0.0 0.0 0.00 0.00 0.00 10 543.9
20240420032050 3 0 0.0 0.0 0.00 0.00 0.00 10 544.1
20240420031625 3 0 0.0 0.0 0.00 0.00 0.00 10 544.0
20240420031155 3 0 0.0 0.0 0.00 0.00 0.00 10 543.8
20240420030735 3 0 0.0 0.0 0.00 0.00 0.00 10 543.7
20240420030245 3 0 0.0 0.0 0.00 0.00 0.00 10 543.8
20240420025814 3 0 0.0 0.0 0.00 0.00 0.00 10 543.9
20240420025345 3 0 0.0 0.0 0.00 0.00 0.00 10 543.8
20240420024925 3 0 0.0 0.0 0.00 0.00 0.00 10 543.8
20240420024505 3 0 0.0 0.0 0.00 0.00 0.00 10 543.9
20240420024045 3 0 0.0 0.0 0.00 0.00 0.00 10 544.0
20240420023605 3 0 0.0 0.0 0.00 0.00 0.00 10 543.8
20240420023140 3 0 0.0 0.0 0.00 0.00 0.00 10 543.9
20240420022720 3 0 0.0 0.0 0.00 0.00 0.00 10 543.8
20240420022305 3 0 0.0 0.0 0.00 0.00 0.00 10 543.8
20240420021810 3 0 0.0 0.0 0.00 0.00 0.00 10 543.7
20240420021345 3 0 0.0 0.0 0.00 0.00 0.00 10 543.9
20240420020910 3 0 0.0 0.0 0.00 0.00 0.00 10 543.7
20240420020500 3 0 0.0 0.0 0.00 0.00 0.00 10 543.8
20240420020030 3 0 0.0 0.0 0.00 0.00 0.00 10 543.8
20240420015605 3 0 0.0 0.0 0.00 0.00 0.00 10 543.8
20240420015140 3 0 0.0 0.0 0.00 0.00 0.00 10 543.8
20240420014705 3 0 0.0 0.0 0.00 0.00 0.00 10 543.9
20240420014235 3 0 0.0 0.0 0.00 0.00 0.00 10 543.8
20240420013815 3 0 0.0 0.0 0.00 0.00 0.00 10 543.7
20240420013330 3 0 0.0 0.0 0.00 0.00 0.00 10 543.8
20240420012900 3 0 0.0 0.0 0.00 0.00 0.00 10 543.7
20240420012435 3 0 0.0 0.0 0.00 0.00 0.00 10 543.9
20240420012020 3 0 0.0 0.0 0.00 0.00 0.00 10 543.9
20240420011600 3 0 0.0 0.0 0.00 0.00 0.00 10 543.8
20240420011145 3 0 0.0 0.0 0.00 0.00 0.00 10 543.8
20240420010730 3 0 0.0 0.0 0.00 0.00 0.00 10 543.9
20240420010247 3 0 0.0 0.0 0.00 0.00 0.00 10 543.6
20240420005820 3 0 0.0 0.0 0.00 0.00 0.00 10 543.9
20240420005405 3 0 0.0 0.0 0.00 0.00 0.00 10 544.0
20240420004910 3 0 0.0 0.0 0.00 0.00 0.00 10 543.9
20240420004430 3 0 0.0 0.0 0.00 0.00 0.00 10 543.8
20240420004020 3 0 0.0 0.0 0.00 0.00 0.00 10 543.9
20240420003545 3 0 0.0 0.0 0.00 0.00 0.00 10 543.8
20240420003100 3 0 0.0 0.0 0.00 0.00 0.00 10 543.9
20240420002635 3 0 0.0 0.0 0.00 0.00 0.00 10 543.7
20240420002200 3 0 0.0 0.0 0.00 0.00 0.00 10 543.7
20240420001740 3 0 0.0 0.0 0.00 0.00 0.00 10 543.8
20240420001334 3 0 0.0 0.0 0.00 0.00 0.00 10 543.8
20240420000905 3 0 0.0 0.0 0.00 0.00 0.00 10 543.7
20240420000440 3 0 0.0 0.0 0.00 0.00 0.00 10 543.7
20240420000010 3 0 0.0 0.0 0.00 0.00 0.00 10 543.7
20240419235535 3 0 0.0 0.0 0.00 0.00 0.00 10 543.7
20240419235125 3 0 0.0 0.0 0.00 0.00 0.00 10 543.8
20240419234640 3 0 0.0 0.0 0.00 0.00 0.00 10 543.7
20240419234200 3 0 0.0 0.0 0.00 0.00 0.00 10 543.8
20240419233735 3 0 0.0 0.0 0.00 0.00 0.00 10 543.8
20240419233305 3 0 0.0 0.0 0.00 0.00 0.00 10 543.9
20240419232810 3 0 0.0 0.0 0.00 0.00 0.00 10 543.7
20240419232335 3 0 0.0 0.0 0.00 0.00 0.00 10 543.7
20240419231920 3 0 0.0 0.0 0.00 0.00 0.00 10 543.7
20240419231520 3 0 0.0 0.0 0.00 0.00 0.00 10 543.8
20240419231040 3 0 0.0 0.0 0.00 0.00 0.00 10 543.8
20240419230630 3 0 0.0 0.0 0.00 0.00 0.00 10 544.0
20240419230025 3 0 0.0 0.0 0.00 0.00 0.00 10 543.6
20240419225545 3 0 0.0 0.0 0.00 0.00 0.00 10 543.7
20240419225130 3 0 0.0 0.0 0.00 0.00 0.00 10 543.6
20240419224700 3 0 0.0 0.0 0.00 0.00 0.00 10 543.7
20240419224211 3 0 0.0 0.0 0.00 0.00 0.00 10 543.8
20240419223725 3 0 0.0 0.0 0.00 0.00 0.00 10 543.9
20240419223250 3 0 0.0 0.0 0.00 0.00 0.00 10 543.6
20240419222815 3 0 0.0 0.0 0.00 0.00 0.00 10 543.8
20240419222340 3 0 0.0 0.0 0.00 0.00 0.00 10 543.7
20240419221915 3 0 0.0 0.0 0.00 0.00 0.00 10 543.9
20240419221445 3 0 0.0 0.0 0.00 0.00 0.00 10 543.9
20240419221020 3 0 0.0 0.0 0.00 0.00 0.00 10 543.7
20240419220530 3 0 0.0 0.0 0.00 0.00 0.00 10 543.7
20240419220055 3 0 0.0 0.0 0.00 0.00 0.00 10 543.7
20240419215615 3 0 0.0 0.0 0.00 0.00 0.00 10 543.8
20240419215140 3 0 0.0 0.0 0.00 0.00 0.00 10 543.8
20240419214654 3 0 0.0 0.0 0.00 0.00 0.00 10 543.7
20240419214220 3 0 0.0 0.0 0.00 0.00 0.00 10 543.9
20240419213805 3 0 0.0 0.0 0.00 0.00 0.00 10 543.9
20240419213315 3 0 0.0 0.0 0.00 0.00 0.00 10 543.7
20240419212900 3 0 0.0 0.0 0.00 0.00 0.00 10 543.7
20240419212420 3 0 0.0 0.0 0.00 0.00 0.00 10 543.7
20240419212020 3 0 0.0 0.0 0.00 0.00 0.00 10 543.7
20240419211530 3 0 0.0 0.0 0.00 0.00 0.00 10 543.8
20240419211045 3 0 0.0 0.0 0.00 0.00 0.00 10 543.8
20240419210610 3 0 0.0 0.0 0.00 0.00 0.00 10 543.8
20240419210130 3 0 0.0 0.0 0.00 0.00 0.00 10 543.7
20240419205700 3 0 0.0 0.0 0.00 0.00 0.00 10 543.8
20240419205235 4 0 0.0 0.0 0.00 0.00 0.00 10 543.8
20240419204830 4 0 0.0 0.0 0.00 0.00 0.00 10 543.9
20240419204345 4 0 0.0 0.0 0.00 0.00 0.00 10 543.8
20240419203901 4 0 0.0 0.0 0.00 0.00 0.00 10 543.5
20240419203425 4 0 0.0 0.0 0.00 0.00 0.00 10 543.9
20240419202950 4 0 0.0 0.0 0.00 0.00 0.00 10 543.7
20240419202510 4 0 0.0 0.0 0.00 0.00 0.00 10 543.7
20240419202025 5 0 0.0 0.0 0.00 0.00 0.00 10 543.5
20240419201605 5 0 0.0 0.0 0.00 0.00 0.00 10 543.6
20240419201140 5 0 0.0 0.0 0.00 0.00 0.00 10 543.6
20240419200710 5 0 0.0 0.0 0.00 0.00 0.00 10 543.7
20240419200245 5 0 0.0 0.0 0.00 0.00 0.00 10 543.7
20240419195753 5 0 0.0 0.0 0.00 0.00 0.00 10 543.7
20240419195320 4 0 0.0 0.0 0.00 0.00 0.00 10 543.5
20240419194845 4 0 0.0 0.0 0.00 0.00 0.00 10 543.5
20240419194425 4 0 0.0 0.0 0.00 0.00 0.00 10 543.5
20240419194005 4 0 0.0 0.0 0.00 0.00 0.00 10 543.6
20240419193540 4 0 0.0 0.0 0.00 0.00 0.00 10 543.6
20240419193125 4 0 0.0 0.0 0.00 0.00 0.00 10 543.6
20240419192650 3 0 0.0 0.0 0.00 0.00 0.00 10 543.6
20240419192155 3 0 0.0 0.0 0.00 0.00 0.00 10 543.7
20240419191745 3 0 0.0 0.0 0.00 0.00 0.00 10 543.6
20240419191325 3 0 0.0 0.0 0.00 0.00 0.00 10 543.6
20240419190830 3 0 0.0 0.0 0.00 0.00 0.00 10 543.6
20240419190345 3 0 0.0 0.0 0.00 0.00 0.00 10 543.8
20240419185905 3 0 0.0 0.0 0.00 0.00 0.00 10 543.7
20240419185415 3 0 0.0 0.0 0.00 0.00 0.00 10 543.6
20240419185000 4 0 0.0 0.0 0.00 0.00 0.00 10 543.6
20240419184540 3 0 0.0 0.0 0.00 0.00 0.00 10 543.7
20240419184120 4 0 0.0 0.0 0.00 0.00 0.00 10 543.6
20240419183650 4 0 0.0 0.0 0.00 0.00 0.00 10 543.6
20240419183205 4 0 0.0 0.0 0.00 0.00 0.00 10 543.5
20240419182725 4 0 0.0 0.0 0.00 0.00 0.00 10 543.6
20240419182315 4 0 0.0 0.0 0.00 0.00 0.00 10 543.6
20240419181835 4 0 0.0 0.0 0.00 0.00 0.00 10 543.5
20240419181405 4 0 0.0 0.0 0.00 0.00 0.00 10 543.6
20240419180930 4 0 0.0 0.0 0.00 0.00 0.00 10 543.6
20240419180450 4 0 0.0 0.0 0.00 0.00 0.00 10 543.5
20240419175955 4 0 0.0 0.0 0.00 0.00 0.00 10 543.3
20240419175520 4 0 0.0 0.0 0.00 0.00 0.00 10 543.6
20240419175040 4 0 0.0 0.0 0.00 0.00 0.00 10 543.8
20240419174620 4 0 0.0 0.0 0.00 0.00 0.00 10 543.8
20240419174120 4 0 0.0 0.0 0.00 0.00 0.00 10 543.5
20240419173640 4 0 0.0 0.0 0.00 0.00 0.00 10 543.7
20240419173225 4 0 0.0 0.0 0.00 0.00 0.00 10 543.6
20240419172752 3 0 0.0 0.0 0.00 0.00 0.00 10 543.7
20240419172320 3 0 0.0 0.0 0.00 0.00 0.00 10 543.7
20240419171850 3 0 0.0 0.0 0.00 0.00 0.00 10 543.8
20240419171420 3 0 0.0 0.0 0.00 0.00 0.00 10 543.6
20240419170950 3 0 0.0 0.0 0.00 0.00 0.00 10 543.5
20240419170510 3 0 0.0 0.0 0.00 0.00 0.00 10 543.6
20240419170040 3 0 0.0 0.0 0.00 0.00 0.00 10 543.5
20240419165610 3 0 0.0 0.0 0.00 0.00 0.00 10 543.6
20240419165150 3 0 0.0 0.0 0.00 0.00 0.00 10 543.5
20240419164710 3 0 0.0 0.0 0.00 0.00 0.00 10 543.6